Weather History for Grove, OK

Change the Weather History Date:

Sunday, December 30, 2012

  Actual Average (KSLG) Record (KSLG)
Temperature  
Mean Temperature 30 °F -  
Max Temperature 44 °F 44 °F 68 °F (2008)
Min Temperature 17 °F 27 °F 14 °F (2013)
Degree Days  
Heating Degree Days 34    
Moisture  
Dew Point 21 °F    
Average Humidity 68    
Maximum Humidity 100    
Minimum Humidity 37    
Precipitation  
Precipitation 0.00 in - - ()
Sea Level Pressure  
Sea Level Pressure 30.35 in    
Wind  
Wind Speed 3 mph (South)    
Max Wind Speed 17 mph    
Max Gust Speed 20 mph    
Visibility 9 miles    
Events      
Averages and records for this station are not official NWS values.
T = Trace of Precipitation, MM = Missing Value Source: NWS Daily Summary

Daily Weather History Graph

Daily Weather History Graph

Search for Another Location

Airport:

Trip Planner

Search our weather history database for the weather conditions in past years. The results will help you decide how hot, cold, wet, or windy it might be!

Date:

Astronomy

Dec. 30, 2012 Rise Set
Actual Time 7:30 AM CST 5:12 PM CST
Civil Twilight 7:02 AM CST 5:41 PM CST
Nautical Twilight 6:29 AM CST 6:13 PM CST
Astronomical Twilight 5:58 AM CST 6:45 PM CST
Moon 7:40 PM CST (12/30) 8:44 AM CST (12/30)
Length of Visible Light 10h 39m
Length of Day
9h 41m
Waning Gibbous, 95% of the Moon is Illuminated
Dec 30
Waning Gibbous
Jan 4
Last Quarter
Jan 11
New
Jan 18
First Quarter
Jan 26
Full

Hourly Weather History & Observations

Time (CST) Temp. Windchill Dew Point Humidity Pressure Visibility Wind Dir Wind Speed Gust Speed Precip Events Conditions
12:15 AM 19.4 °F - 17.6 °F 93% 30.41 in 10.0 mi Calm Calm - N/A   Clear
12:35 AM 19.4 °F - 17.6 °F 93% 30.41 in 10.0 mi Calm Calm - N/A   Clear
12:55 AM 19.4 °F - 17.6 °F 93% 30.42 in 10.0 mi Calm Calm - N/A   Clear
1:15 AM 19.4 °F - 17.6 °F 93% 30.42 in 10.0 mi Calm Calm - N/A   Clear
1:35 AM 19.4 °F - 17.6 °F 93% 30.41 in 10.0 mi Calm Calm - N/A   Clear
1:55 AM 19.4 °F - 17.6 °F 93% 30.40 in 7.0 mi Calm Calm - N/A   Clear
2:15 AM 19.4 °F - 17.6 °F 93% 30.41 in 10.0 mi Calm Calm - N/A   Clear
2:35 AM 19.4 °F - 17.6 °F 93% 30.42 in 10.0 mi Calm Calm - N/A   Clear
2:55 AM 19.4 °F - 17.6 °F 93% 30.43 in 7.0 mi Calm Calm - N/A   Clear
3:15 AM 19.4 °F - 17.6 °F 93% 30.43 in 7.0 mi Calm Calm - N/A   Clear
3:35 AM 19.4 °F - 17.6 °F 93% 30.42 in 10.0 mi Calm Calm - N/A   Clear
3:55 AM 19.4 °F - 17.6 °F 93% 30.43 in 10.0 mi Calm Calm - N/A   Clear
4:15 AM 17.6 °F - 17.6 °F 100% 30.42 in 7.0 mi Calm Calm - N/A   Clear
4:35 AM 17.6 °F - 17.6 °F 100% 30.42 in 7.0 mi Calm Calm - N/A   Clear
4:55 AM 17.6 °F - 17.6 °F 100% 30.42 in 7.0 mi Calm Calm - N/A   Clear
5:15 AM 17.6 °F - 15.8 °F 93% 30.41 in 7.0 mi Calm Calm - N/A   Clear
5:35 AM 17.6 °F - 15.8 °F 93% 30.41 in 7.0 mi Calm Calm - N/A   Clear
5:55 AM 19.4 °F - 17.6 °F 93% 30.41 in 7.0 mi Calm Calm - N/A   Clear
6:15 AM 19.4 °F - 17.6 °F 93% 30.41 in 7.0 mi Calm Calm - N/A   Clear
6:35 AM 19.4 °F - 17.6 °F 93% 30.41 in 7.0 mi Calm Calm - N/A   Clear
6:55 AM 17.6 °F - 15.8 °F 93% 30.41 in 7.0 mi Calm Calm - N/A   Clear
7:15 AM 17.6 °F - 17.6 °F 100% 30.40 in 7.0 mi Calm Calm - N/A   Clear
7:35 AM 17.6 °F - 17.6 °F 100% 30.41 in 7.0 mi Calm Calm - N/A   Clear
7:55 AM 17.6 °F - 17.6 °F 100% 30.40 in 7.0 mi Calm Calm - N/A   Clear
8:15 AM 19.4 °F - 19.4 °F 100% 30.41 in 7.0 mi Calm Calm - N/A   Clear
8:35 AM 23.0 °F - 21.2 °F 93% 30.42 in 7.0 mi Calm Calm - N/A   Clear
8:55 AM 24.8 °F - 23.0 °F 93% 30.42 in 7.0 mi Calm Calm - N/A   Clear
9:15 AM 28.4 °F - 26.6 °F 93% 30.42 in 7.0 mi Calm Calm - N/A   Clear
9:35 AM 32.0 °F - 28.4 °F 87% 30.42 in 10.0 mi Calm Calm - N/A   Clear
9:55 AM 35.6 °F 29.2 °F 28.4 °F 75% 30.42 in 10.0 mi South 8.1 mph - N/A   Clear
10:15 AM 37.4 °F 31.4 °F 28.4 °F 70% 30.41 in 10.0 mi South 8.1 mph - N/A   Clear
10:35 AM 37.4 °F 30.8 °F 28.4 °F 70% 30.41 in 10.0 mi South 9.2 mph - N/A   Clear
10:55 AM 39.2 °F 32.5 °F 26.6 °F 61% 30.40 in 10.0 mi South 10.4 mph 16.1 mph N/A   Clear
11:15 AM 41.0 °F 36.4 °F 26.6 °F 57% 30.39 in 10.0 mi South 6.9 mph - N/A   Clear
11:35 AM 42.8 °F 35.8 °F 24.8 °F 49% 30.38 in 10.0 mi South 13.8 mph - N/A   Clear
11:55 AM 42.8 °F 36.2 °F 23.0 °F 46% 30.37 in 10.0 mi South 12.7 mph 17.3 mph N/A   Clear
12:15 PM 42.8 °F 36.6 °F 23.0 °F 46% 30.37 in 10.0 mi South 11.5 mph 16.1 mph N/A   Clear
12:35 PM 42.8 °F 35.8 °F 21.2 °F 42% 30.36 in 10.0 mi South 13.8 mph 18.4 mph N/A   Clear
12:55 PM 44.6 °F 38.4 °F 21.2 °F 39% 30.36 in 10.0 mi SSW 12.7 mph - N/A   Clear
1:15 PM 44.6 °F 37.2 °F 19.4 °F 37% 30.34 in 10.0 mi South 17.3 mph - N/A   Clear
1:35 PM 42.8 °F 36.2 °F 19.4 °F 39% 30.33 in 10.0 mi South 12.7 mph - N/A   Clear
1:55 PM 44.6 °F 38.1 °F 19.4 °F 37% 30.33 in 10.0 mi South 13.8 mph - N/A   Clear
2:15 PM 44.6 °F 40.2 °F 21.2 °F 39% 30.32 in 10.0 mi South 8.1 mph - N/A   Clear
2:35 PM 44.6 °F 39.2 °F 21.2 °F 39% 30.31 in 10.0 mi South 10.4 mph 16.1 mph N/A   Clear
2:55 PM 44.6 °F 38.4 °F 19.4 °F 37% 30.31 in 10.0 mi South 12.7 mph - N/A   Clear
3:15 PM 44.6 °F 39.7 °F 21.2 °F 39% 30.31 in 10.0 mi South 9.2 mph - N/A   Clear
3:35 PM 44.6 °F 38.4 °F 19.4 °F 37% 30.30 in 10.0 mi South 12.7 mph 19.6 mph N/A   Clear
3:55 PM 42.8 °F 37.5 °F 19.4 °F 39% 30.30 in 10.0 mi South 9.2 mph - N/A   Clear
4:15 PM 42.8 °F 37.5 °F 19.4 °F 39% 30.30 in 10.0 mi South 9.2 mph - N/A   Clear
4:35 PM 41.0 °F 35.8 °F 19.4 °F 42% 30.29 in 10.0 mi South 8.1 mph - N/A   Clear
4:55 PM 41.0 °F 34.7 °F 19.4 °F 42% 30.29 in 10.0 mi South 10.4 mph - N/A   Clear
5:15 PM 41.0 °F 37.1 °F 19.4 °F 42% 30.29 in 10.0 mi South 5.8 mph - N/A   Clear
5:35 PM 39.2 °F 35.9 °F 23.0 °F 52% 30.29 in 10.0 mi SSE 4.6 mph - N/A   Clear
5:55 PM 37.4 °F 33.8 °F 23.0 °F 56% 30.28 in 10.0 mi SSE 4.6 mph - N/A   Clear
6:15 PM 37.4 °F 33.8 °F 23.0 °F 56% 30.27 in 10.0 mi SE 4.6 mph - N/A   Clear
6:35 PM 37.4 °F 32.1 °F 23.0 °F 56% 30.27 in 10.0 mi SSE 6.9 mph - N/A   Clear
6:55 PM 37.4 °F 32.8 °F 23.0 °F 56% 30.27 in 10.0 mi SSE 5.8 mph - N/A   Clear
7:15 PM 37.4 °F 32.1 °F 23.0 °F 56% 30.26 in 10.0 mi SSE 6.9 mph - N/A   Clear
7:35 PM 37.4 °F 32.8 °F 23.0 °F 56% 30.25 in 10.0 mi SSE 5.8 mph - N/A   Clear
7:55 PM 37.4 °F 33.8 °F 23.0 °F 56% 30.24 in 10.0 mi SSE 4.6 mph - N/A   Clear
8:15 PM 37.4 °F 32.1 °F 23.0 °F 56% 30.24 in 10.0 mi SSE 6.9 mph - N/A   Clear
8:35 PM 37.4 °F 32.1 °F 23.0 °F 56% 30.24 in 10.0 mi SSE 6.9 mph - N/A   Clear
8:55 PM 37.4 °F 32.1 °F 23.0 °F 56% 30.24 in 10.0 mi SSE 6.9 mph - N/A   Clear
9:15 PM 37.4 °F 31.4 °F 23.0 °F 56% 30.24 in 10.0 mi SSE 8.1 mph - N/A   Clear
9:35 PM 37.4 °F 31.4 °F 23.0 °F 56% 30.23 in 10.0 mi SSE 8.1 mph - N/A   Clear
9:55 PM 37.4 °F 31.4 °F 23.0 °F 56% 30.23 in 10.0 mi SSE 8.1 mph - N/A   Clear
10:15 PM 37.4 °F 30.8 °F 23.0 °F 56% 30.23 in 10.0 mi South 9.2 mph - N/A   Clear
10:35 PM 37.4 °F 32.1 °F 23.0 °F 56% 30.23 in 10.0 mi South 6.9 mph - N/A   Clear
10:55 PM 37.4 °F 31.4 °F 23.0 °F 56% 30.23 in 10.0 mi South 8.1 mph - N/A   Clear
11:15 PM 37.4 °F 33.8 °F 23.0 °F 56% 30.23 in 10.0 mi South 4.6 mph - N/A   Clear
11:35 PM 37.4 °F 32.8 °F 23.0 °F 56% 30.24 in 10.0 mi South 5.8 mph - N/A   Scattered Clouds
11:55 PM 37.4 °F 32.8 °F 23.0 °F 56% 30.23 in 10.0 mi South 5.8 mph - N/A   Mostly Cloudy